Home   Weather   Monterey   Past weeks

Flag for USA Past Weather in Monterey, California, USA — Yesterday and Last 2 Weeks

Now
85 °F

Sunny.


Feels Like: 82 °F
Forecast: 57 / 75 °F
Wind: 7 mph from Northwest

Location: Monterey Peninsula Airport

Current Time: Sep 25, 2016 at 1:59:22 PM

Latest Report: Sep 25, 2016 at 12:54 PM


Visibility: 10 mi

Pressure: 30.05 "Hg

Humidity: 26%

Dew Point: 46 °F

Location of MontereyLocation

Past Weather in Monterey — Graph

°F

Monterey Temperature Yesterday

Maximum temperature yesterday: 71 °F (at 5:54 PM)
Minimum temperature yesterday: 51 °F (at 6:54 AM)
Average temperature yesterday: 62 °F

High & Low Weather Summary for the Past Weeks

 TemperatureHumidityPressure
High81 °F (Sep 25, 11:54 AM)100% (Sep 17, 4:54 AM)30.19 "Hg (Sep 17, 4:54 AM)
Low48 °F (Sep 18, 7:54 AM)33% (Sep 25, 11:54 AM)29.89 "Hg (Sep 13, 3:54 AM)
Average59 °F77%30.05 "Hg
* Reported Sep 10 11:54 AM — Sep 25 11:54 AM, Monterey, Weather by CustomWeather, © 2016

Note: Actual official high and low records may vary slightly from our data, if they occured in-between our weather recording intervals... More about our weather records

Advertising

Monterey Weather History for the Previous 24 Hours

Scroll right to see more
 ConditionsComfort  
Time TempWeatherWind HumidityBarometerVisibility
11:54 AM
Sun, Sep 25
81 °FSunny.5 mph33%30.07 "Hg10 mi
10:54 AM77 °FSunny.6 mph36%30.09 "Hg10 mi
9:54 AM73 °FSunny.7 mph48%30.07 "Hg10 mi
8:54 AM71 °FSunny.No wind49%30.06 "Hg10 mi
7:54 AM64 °FSunny.3 mph54%30.05 "Hg10 mi
6:54 AM62 °FClear.5 mph60%30.04 "Hg10 mi
5:54 AM64 °FClear.5 mph61%30.03 "Hg10 mi
4:54 AM60 °FClear.No wind69%30.04 "Hg10 mi
3:54 AM57 °FClear.No wind81%30.05 "Hg10 mi
2:54 AM58 °FClear.No wind81%30.08 "Hg10 mi
1:54 AM57 °FClear.No wind83%30.09 "Hg7 mi
12:54 AM59 °FClear.No wind84%30.09 "Hg7 mi
11:54 PM
Sat, Sep 24
59 °FFog.3 mph90%30.09 "Hg5 mi
10:54 PM60 °FClear.No wind83%30.09 "Hg7 mi
9:54 PM65 °FClear.3 mph61%30.08 "Hg10 mi
8:54 PM64 °FClear.9 mph63%30.08 "Hg10 mi
7:54 PM65 °FClear.3 mph68%30.09 "Hg10 mi
6:54 PM67 °FSunny.No wind63%30.09 "Hg10 mi
5:54 PM71 °FSunny.6 mph53%30.09 "Hg10 mi
4:54 PM70 °FSunny.5 mph59%30.09 "Hg10 mi
3:54 PM69 °FSunny.3 mph61%30.10 "Hg10 mi
2:54 PM67 °FSunny.6 mph66%30.11 "Hg10 mi
1:54 PM66 °FSunny.8 mph65%30.13 "Hg10 mi
Weather by CustomWeather, © 2016

See weather overviewHow to use our weather pages